TIME,DELAY(SENSOR),PRES,T(CTD),SAL,OXYGEN,RAWTEMP,T(OPTODE),TCPHASE,FLUOR,BETA(BETA700),BETA(BETA412),BETA(BETA440),CDOM,C(CSC),ED(ED412.40),ED(ED444.00),ED(ED489.70),ED(ED554.30),LU(LU411.80),LU(LU443.40),LU(LU489.60),LU(LU554.10),COMP,TILTX,TILTX(TILTY),CHECK
1381613494,5809,495.2600097656250000,6.8196001052856445,34.1674995422363300,70.1431121826171900,593.2492065429688000,6.8021259307861330,50.0082206726074200,51,102,85,79,77,15250,2147750445,2147428480,2148007963,2147872521,2147628736,2147073380,2148251748,2147201792,556,4,13,39672
1381613609,5806,483.5299987792969000,6.8586997985839840,34.1413993835449200,77.2393417358398400,592.1356201171875000,6.8380241394042970,49.1236495971679700,52,105,86,79,77,15251,2147746139,2147424182,2148004845,2147873600,2147625526,2147070729,2148241645,2147201837,334,4,13,40814
1381613714,5810,472.6799926757812500,6.9532999992370605,34.1318016052246100,82.4089431762695300,589.1210937500000000,6.9351348876953125,48.4666595458984400,51,102,90,79,76,15250,2147746358,2147426020,2148005814,2147876745,2147626121,2147073325,2148241261,2147202075,3378,4,13,50178
1381613817,5811,462.0299987792969000,7.0251002311706540,34.1138000488281250,91.7266235351562500,586.6687011718750000,7.0140781402587890,47.3762283325195300,52,104,85,79,76,15250,2147747483,2147427044,2148006226,2147870793,2147627108,2147072914,2148244068,2147198957,2998,3,13,62975
1381613932,5805,450.5599975585937500,7.2273001670837400,34.0946006774902340,103.2004013061523400,580.5119018554688000,7.2120251655578610,46.0540695190429700,51,103,83,79,75,15251,2147745289,2147425490,2148007890,2147874057,2147624210,2147076370,2148243382,2147201243,2055,3,13,58096
1381614043,5811,440.3500061035156000,7.4116997718811035,34.0913009643554700,113.1948013305664000,574.9348144531250000,7.3910369873046875,44.9554901123046900,51,104,85,79,76,15253,2147745179,2147424822,2148006354,2147874322,2147622930,2147075355,2148244123,2147203117,1094,3,13,60369
1381614191,5805,429.8599853515625000,7.5693001747131350,34.0904006958007800,121.0856018066406200,569.2393798828125000,7.5735588073730470,44.1014099121093750,50,103,85,80,74,15253,2147745618,2147427282,2148007213,2147873664,2147626880,2147079497,2148244169,2147202578,3013,3,13,31257
1381614350,5804,418.8500061035156000,7.8868999481201170,34.0954017639160160,125.3267974853515600,559.9721069335938000,7.8699488639831540,43.5501899719238300,50,104,83,80,74,15252,2147745874,2147424539,2148005193,2147871259,2147624182,2147080950,2148241563,2147203629,3011,4,13,34034
1381614479,5809,407.3200073242187500,8.1576004028320310,34.1017990112304700,133.1194000244140600,551.3884887695312000,8.1438217163085940,42.6978797912597660,50,104,87,80,73,15249,2147746569,2147428489,2148007524,2147873481,2147621092,2147080274,2148237238,2147203968,2151,3,13,64593
1381614594,5807,396.2799987792969000,8.3551998138427730,34.1022987365722660,138.4602966308593800,544.6447753906250000,8.3585586547851560,42.1143608093261700,50,104,85,79,73,15247,2147743990,2147426669,2148003693,2147872228,2147620480,2147077933,2148227282,2147202550,901,4,13,46156
1381614711,5807,385.0700073242187500,8.5937995910644530,34.1040992736816400,145.5097961425781200,537.8347778320312000,8.5750350952148440,41.3984794616699200,50,106,88,80,73,15249,2147743177,2147421101,2148004288,2147872182,2147619721,2147082313,2148235620,2147203748,245,4,13,14025
1381614838,5810,374.0899963378906000,8.9135999679565430,34.1068992614746100,153.0473937988281200,527.2235717773438000,8.9116134643554690,40.5996894836425800,50,103,91,81,72,15249,2147742720,2147426331,2148004589,2147873216,2147616950,2147087954,2148230966,2147204086,1994,4,13,41555
1381614979,5809,363.4599914550781000,9.2475996017456050,34.1091003417968750,165.3838958740234400,517.1408081054688000,9.2306327819824220,39.4733314514160160,50,107,84,81,71,15252,2147737536,2147426048,2148007844,2147874304,2147618377,2147084726,2148231862,2147204580,1103,3,13,10151
1381615130,5807,353.2099914550781000,9.4857997894287110,34.1167984008789060,169.8842926025390600,509.2056884765625000,9.4811697006225590,39.0039901733398440,50,106,82,79,72,15246,2147738413,2147426176,2148004736,2147872850,2147612086,2147096448,2148232566,2147209965,2843,3,13,31739
1381615289,5807,341.9700012207031000,9.9624004364013670,34.1259994506835940,171.3580932617187500,494.4927978515625000,9.9445104598999020,38.6457214355468750,50,105,88,80,70,15246,2147736210,2147425956,2148008301,2147873773,2147611264,2147096676,2148226779,2147204672,2518,4,13,60512
1381615422,5811,330.3800048828125000,10.4333000183105470,34.1360015869140600,178.4960021972656200,478.6910095214844000,10.4405002593994140,37.8728485107421900,50,111,87,79,69,15247,2147733760,2147426669,2148014089,2147874121,2147611236,2147102774,2148228187,2147207533,1743,4,13,19591
1381615537,5804,319.2399902343750000,10.8081998825073240,34.1441001892089840,184.6887969970703000,466.0049133300781000,10.8375396728515620,37.2387313842773440,50,105,89,80,70,15245,2147730212,2147427190,2148017746,2147869632,2147607570,2147101065,2148226907,2147204708,1409,3,13,59784
1381615654,5805,308.2300109863281000,10.9975004196167000,34.1548004150390600,192.7639007568359400,461.1845092773437500,10.9881401062011720,36.6301994323730500,50,103,87,80,69,15248,2147728338,2147427373,2148024137,2147871259,2147604333,2147111131,2148232246,2147206025,1615,3,13,49548
1381615781,5807,297.1199951171875000,11.3280000686645500,34.1576995849609400,193.4454040527343800,450.6033935546875000,11.3182401657104500,36.4124488830566400,49,104,85,80,69,15246,2147732077,2147428864,2148024018,2147869842,2147604717,2147107611,2148222646,2147206134,762,3,14,9173
1381615910,5809,287.2099914550781000,11.7815999984741210,34.1776008605957000,197.0178985595703000,435.6270141601562500,11.7843799591064450,35.9441108703613300,49,104,87,78,67,15247,2147728777,2147433545,2148042176,2147871744,2147607396,2147119789,2148235940,2147206345,3048,3,13,41139
1381616085,5807,275.9599914550781000,12.6396999359130860,34.2393989562988300,208.7996063232422000,408.5383911132812500,12.6245498657226560,34.8036384582519500,49,104,85,80,67,15246,2147727414,2147440384,2148053604,2147871515,2147597805,2147124882,2148234514,2147209526,2463,3,13,60266
1381616274,5807,263.2699890136719000,13.3205995559692380,34.2836990356445300,213.8744964599609400,386.7290039062500000,13.2985095977783200,34.1746406555175800,48,106,87,79,65,15244,2147726381,2147451940,2148089161,2147871862,2147594413,2147141046,2148250441,2147210166,310,3,14,44694
1381616399,5808,252.6300048828125000,13.8270998001098630,34.3154983520507800,212.2640991210937500,369.5262145996094000,13.8287401199340820,34.0031013488769500,48,103,85,79,66,15245,2147728521,2147463908,2148121508,2147873472,2147592877,2147145664,2148258678,2147212598,81,3,13,45606
1381616534,5807,240.9199981689453000,14.5480003356933600,34.3827018737793000,209.3977050781250000,346.4796142578125000,14.5374402999877930,33.8183212280273440,50,103,86,78,65,15242,2147723282,2147485184,2148170102,2147874340,2147591021,2147162596,2148282404,2147214299,3157,3,14,37756
1381616642,5810,229.8000030517578000,15.2513999938964840,34.4634017944335940,212.9532012939453000,322.5455932617187500,15.2717399597167970,33.2621917724609400,49,104,86,80,64,15239,2147730724,2147517741,2148251108,2147873892,2147589312,2147182573,2148314678,2147215744,3213,2,14,36010
1381616745,5808,219.2500000000000000,15.8654003143310550,34.5335006713867200,214.7200012207031200,303.2651977539062500,15.8622598648071290,32.8828086853027340,50,106,85,80,65,15238,2147731995,2147560356,2148338953,2147875373,2147585289,2147213586,2148357650,2147226084,2117,2,13,23634
1381616886,5811,206.0899963378906200,16.3621006011962900,34.5979995727539060,214.5641937255859400,286.5559997558594000,16.3734493255615230,32.6509819030761700,50,106,86,79,64,15238,2147747538,2147650066,2148522953,2147872658,2147590866,2147261641,2148445577,2147228361,1514,2,14,58971
1381616992,5809,197.9100036621093800,16.7670993804931640,34.6492004394531250,214.2593994140625000,272.4844055175781000,16.8036193847656250,32.4669418334960940,50,105,87,80,64,15236,2147766336,2147738660,2148703707,2147874669,2147594788,2147320411,2148533357,2147235986,277,2,14,35460
1381617047,5806,193.8999938964843800,16.9848003387451170,34.6775016784668000,214.9286041259765600,266.2806091308594000,16.9931907653808600,32.3422813415527340,48,103,85,80,64,15231,2147759469,2147656896,2148482267,2147873289,2147585792,2147279378,2148417645,2147227739,3283,2,14,34108
1381617102,5807,190.0299987792968800,17.2837009429931640,34.7179985046386700,215.0709991455078000,256.1738891601562500,17.3019599914550780,32.1917991638183600,50,106,87,80,64,15229,2147737408,2147558390,2148251483,2147872338,2147583350,2147225088,2148312493,2147220132,2875,2,14,6102
1381617187,5810,185.5500030517578000,17.9950008392334000,34.8138008117675800,216.1773071289062500,233.9533996582031200,17.9806098937988280,31.8216495513916000,50,104,84,80,63,15232,2147815570,2147907492,2148999981,2147875227,2147610806,2147429120,2148669202,2147247478,1982,2,15,63523
1381617290,5808,181.6600036621093800,18.3386993408203120,34.8595008850097660,217.0005950927734400,221.7225952148437500,18.3541107177734380,31.6089000701904300,51,104,83,80,64,15227,2147838409,2147986130,2149137645,2147875940,2147620800,2147476809,2148739035,2147253686,1482,2,15,1544
1381617393,5812,178.0399932861328000,18.6515007019042970,34.9058990478515600,217.6347961425781200,212.3444976806640600,18.6405200958251950,31.4464702606201170,52,106,87,80,63,15229,2147855122,2148028544,2149197348,2147877430,2147626816,2147508224,2148763355,2147254418,1145,2,15,45139
1381617509,5809,173.2599945068359400,19.1044998168945300,34.9641990661621100,219.0843963623047000,197.6721038818359400,19.0886993408203120,31.1704101562500000,52,103,84,79,64,15226,2147860827,2147997357,2149084425,2147876909,2147632612,2147517330,2148733988,2147254400,991,2,14,37280
1381617576,5806,169.5299987792968800,19.1287994384765620,34.9700012207031250,220.5554046630859400,196.4163055419922000,19.1270694732666000,31.0769805908203120,52,104,84,79,61,15226,2147946313,2148264155,2149593947,2147877065,2147661897,2147671296,2148964425,2147270482,607,2,15,4094
1381617631,5809,166.1100006103515600,19.1627998352050780,34.9767990112304700,221.0545043945312500,195.1605987548828000,19.1654300689697270,31.0340309143066400,53,103,87,80,63,15226,2147996544,2148381888,2149791881,2147880868,2147684754,2147748726,2149070646,2147278756,718,2,15,27931
1381617698,5809,161.7299957275390600,19.4153995513916000,35.0140991210937500,220.7010955810547000,187.3784942626953000,19.4032306671142580,30.9476394653320300,55,103,87,80,62,15223,2148072228,2148542930,2150048073,2147882614,2147716736,2147851136,2149199323,2147286043,964,2,15,33847
1381617753,5808,158.3999938964843800,19.6170005798339840,35.0397987365722660,220.3683013916015600,180.3515014648437500,19.6180000305175780,30.8700904846191400,56,103,87,80,62,15221,2148137920,2148689188,2150279890,2147882614,2147752073,2147949595,2149315154,2147292452,448,1,15,2659
1381617834,5806,154.2299957275390600,19.7859992980957030,35.0643005371093750,221.8141021728515600,174.9940948486328000,19.7817897796630860,30.7240390777587900,57,107,86,80,62,15221,2148239817,2148886134,2150581211,2147884608,2147793682,2148072146,2149473654,2147308096,2858,2,15,64101
1381617913,5807,150.3699951171875000,20.0750007629394530,35.1063995361328100,221.8265991210937500,166.4506988525390600,20.0430698394775400,30.6094493865966800,60,107,87,81,62,15214,2147998976,2148142372,2149134857,2147879488,2147693970,2147625261,2148765110,2147255936,2680,2,15,1398
1381618004,5808,146.5000000000000000,20.2700004577636720,35.1292991638183600,222.6585998535156200,158.9246063232422000,20.2733306884765620,30.4674091339111330,64,108,85,80,63,15210,2148422939,2149178194,2150983616,2147889307,2147881947,2148267620,2149673481,2147325869,3105,2,15,63526
1381618107,5808,142.7799987792968800,20.4547996520996100,35.1604003906250000,223.0547027587890600,152.9750976562500000,20.4554290771484380,30.3683490753173830,69,112,86,81,62,15203,2148641005,2149593627,2151651730,2147896265,2147980937,2148521170,2149984338,2147348900,2283,1,15,36943
1381618212,5807,138.9400024414062500,20.5673999786376950,35.1794013977050800,223.0213012695312500,149.5650939941406200,20.5598297119140620,30.3250503540039060,74,112,87,79,62,15200,2148883620,2150020086,2152319158,2147904320,2148101046,2148789312,2150320027,2147372928,653,2,15,20738
1381618315,5806,134.6000061035156200,20.7306995391845700,35.1931991577148440,223.3070068359375000,145.0476074218750000,20.6981792449951170,30.2513198852539060,80,115,90,81,61,15193,2149155053,2150432374,2152922706,2147908964,2148217819,2149029293,2150592292,2147397842,3198,2,15,37359
1381618406,5809,130.6600036621093800,20.8386993408203120,35.2070999145507800,223.7770996093750000,140.6217041015625000,20.8337593078613280,30.1696205139160160,86,116,87,81,61,15189,2149426560,2150850669,2153540233,2147923044,2148332973,2149248585,2150847972,2147416173,2581,1,15,52037
1381618499,5806,126.4899978637695300,20.9955005645751950,35.2200012207031250,224.2705993652343800,136.2947998046875000,20.9663600921630860,30.0882606506347660,92,116,85,81,60,15180,2149949833,2151734500,2154885440,2147943305,2148573942,2149741586,2151457746,2147467044,1420,2,15,40939
1381618590,5806,123.0800018310546900,21.2686004638671880,35.2500991821289060,223.9123992919922000,127.2901992797851600,21.2424392700195300,29.9881706237792970,110,121,87,81,60,15165,2149519140,2150710619,2153046619,2147923318,2148368950,2149121380,2150595428,2147403712,349,2,15,24260
1381618753,5808,119.4599990844726600,21.3833999633789060,35.2664985656738300,226.5453033447265600,122.9926986694336000,21.3742809295654300,29.8018608093261720,118,122,91,82,61,15153,2151064128,2153383085,2157201700,2147979986,2148989540,2150467693,2152338139,2147545508,342,2,15,61699
1381618898,5805,114.5100021362304700,21.5863990783691400,35.2728996276855500,228.5865936279297000,116.4317016601562500,21.5756607055664060,29.6174602508544920,120,121,89,82,61,15140,2151941632,2154445138,2158457581,2148016429,2149277120,2150764598,2152623552,2147582921,311,2,15,29208
1381618989,5809,110.6399993896484400,21.8372001647949220,35.2846984863281250,229.9456024169922000,108.7017974853515600,21.8130702972412100,29.4517498016357420,127,121,88,82,60,15139,2151624950,2153457060,2156407497,2147991277,2149143405,2150244041,2151841152,2147528365,3130,1,15,31482
1381619092,5810,107.2500000000000000,22.0237007141113280,35.2946014404296900,232.6154937744140600,103.0593032836914000,21.9864902496337900,29.2520999908447270,133,117,87,82,60,15134,2155146258,2158861165,2164071314,2148129316,2150444653,2152596251,2154748525,2147791259,2399,1,16,340
1381619225,5806,102.4800033569336000,22.2003993988037100,35.3031997680664060,235.8397064208984400,96.5632400512695300,22.1862697601318360,29.0178108215332030,117,116,89,82,60,15133,2152865517,2154533376,2157025353,2148022217,2149514715,2150434624,2151800036,2147551067,2869,2,15,14478
1381619316,5810,99.0599975585937500,22.4874000549316400,35.3210983276367200,237.3753051757812500,87.4294967651367200,22.4674091339111330,28.8307991027832030,115,116,87,81,60,15134,2153665892,2155287076,2157575625,2148045403,2149846043,2150737042,2152001892,2147579081,2347,1,15,13633
1381619383,5809,97.2099990844726600,22.6972007751464840,35.3320999145507800,238.9886016845703000,80.5051269531250000,22.6807594299316400,28.6693305969238280,111,116,89,83,59,15136,2156046217,2158308059,2161104320,2148117366,2150855003,2152231451,2153641874,2147730212,1375,2,15,62000
1381619479,5810,94.8700027465820300,22.9375000000000000,35.3320007324218750,240.6665039062500000,73.1168670654296900,22.9085903167724600,28.5004997253417970,101,120,89,83,59,15121,2164742025,2169952228,2175666715,2148496466,2154307401,2157384374,2159305691,2148276059,923,1,15,2957
1381619534,5812,93.0699996948242200,22.9719009399414060,35.3334007263183600,242.2227935791015600,71.3042068481445300,22.9645195007324220,28.4077796936035160,100,118,89,83,59,15124,2165146953,2170052205,2175419483,2148524205,2154546962,2157522962,2159322834,2148294674,3520,1,16,22072
1381619601,5805,90.5699996948242200,23.1229000091552730,35.3400993347168000,243.7689971923828000,67.2094116210937500,23.0909194946289060,28.2875194549560550,92,119,91,83,60,15109,2156446555,2157596836,2158867145,2148112356,2151214756,2152054372,2152900818,2147682386,2844,2,15,22246
1381619656,5805,88.4899978637695300,23.2262992858886720,35.3413009643554700,244.6210021972656200,62.8255691528320300,23.2263202667236330,28.1951999664306640,91,119,87,84,60,15118,2156184173,2156936374,2157759597,2148095259,2151130441,2151695835,2152321453,2147631158,2102,1,16,34319
1381619711,5810,86.5299987792968800,23.2810993194580080,35.3428001403808600,246.1730041503906200,61.3662910461425800,23.2714099884033200,28.1088409423828120,88,121,91,83,58,15117,2157859684,2158705307,2159420754,2148151515,2151934089,2152613622,2153094985,2147710409,1571,1,15,23521
1381619796,5807,82.9599990844726600,23.4515991210937500,35.3400993347168000,246.7342987060547000,55.0523681640625000,23.4666004180908200,28.0058708190917970,87,122,89,84,58,15116,2182491794,2188947474,2193859218,2149421878,2162560219,2166773339,2167203574,2149152384,536,2,16,11030
1381619851,5807,80.4800033569336000,23.6214008331298830,35.3394012451171900,247.6009979248047000,50.6299705505371100,23.6034297943115230,27.9135093688964840,85,126,89,82,60,15107,2190403904,2196952768,2201240832,2149763254,2166909010,2172013805,2171904283,2149633792,637,1,15,43761
1381619906,5810,78.3000030517578100,23.8715991973876950,35.3395996093750000,247.9987030029297000,42.6967506408691400,23.8491001129150400,27.7982902526855470,84,126,91,86,57,15101,2195509248,2202095826,2205989750,2150079844,2169713161,2175053522,2174359616,2149907977,449,1,15,52928
1381619961,5810,76.6299972534179700,24.1165008544921880,35.3260993957519500,248.5440063476562500,34.9001388549804700,24.0908393859863280,27.6787300109863280,81,124,87,84,58,15098,2200273243,2206903149,2210162806,2150391177,2172550939,2178074340,2176670619,2150179309,886,1,15,9865
1381620016,5804,75.4199981689453100,24.3348007202148440,35.2888984680175800,249.8441925048828000,30.0739307403564450,24.2406291961669920,27.5636901855468750,81,125,89,84,58,15096,2191281526,2195303250,2196568594,2149820278,2168212553,2171888347,2170128868,2149512274,540,2,15,54514
1381620137,5808,73.4499969482421900,24.5771999359130860,35.3042984008789060,252.6280059814453000,19.8666191101074220,24.5578308105468750,27.3210697174072270,73,125,92,85,55,15089,2171756726,2171874230,2170643721,2148743158,2159620416,2160514998,2159084434,2148364955,2000,1,16,62744
1381620240,5808,71.2399978637695300,24.7119998931884770,35.3115005493164060,253.5729064941406200,15.3803901672363280,24.6974201202392580,27.2268009185791000,72,125,90,85,59,15091,2172302473,2171551259,2169638656,2148747520,2160335040,2160797952,2158893403,2148350381,2410,1,16,58859
1381620319,5809,69.2099990844726600,24.9911003112792970,35.3154983520507800,253.0995941162109400,9.2802820205688480,24.8874092102050780,27.1723194122314450,69,124,92,86,57,15090,2172010669,2170517979,2168057837,2148715337,2160503396,2160543890,2158323949,2148305417,2378,2,16,4842
1381620403,5810,66.7399978637695300,25.3355998992919920,35.3418998718261700,251.3348999023437500,-2.6745650768280030,25.2603492736816400,27.1010704040527340,70,124,93,85,57,15084,2174731318,2172700726,2169676022,2148858742,2162471213,2162273865,2159403318,2148429412,1640,1,16,10572
1381620458,5805,64.8899993896484400,25.6576995849609380,35.3679008483886700,249.2048950195312500,-13.8807897567749020,25.6107101440429700,27.0550498962402340,66,126,93,85,57,15086,2189445284,2187687414,2184021997,2149798006,2170919744,2171419611,2166872173,2149264384,183,1,16,33989
1381620525,5805,63.5000000000000000,25.7702999114990230,35.3778991699218750,247.5637969970703000,-18.0226001739501950,25.7404003143310550,27.0743808746337900,66,126,91,84,57,15061,2187480036,2185225316,2181292324,2149677979,2170221129,2170352265,2165688155,2149133760,3179,1,16,22701
1381620717,5810,61.0400009155273440,25.8712005615234380,35.3889999389648440,245.6947937011718800,-22.5805206298828120,25.8832492828369140,27.0991897583007800,65,127,89,86,53,15078,2232019291,2234138249,2231395702,2153712978,2197166884,2200579190,2191021750,2152065920,2443,1,16,336
1381620772,5808,58.5400009155273440,26.0709991455078120,35.3973007202148440,244.5099029541015600,-27.7590198516845700,26.0457096099853500,27.0872001647949220,66,129,91,85,56,15076,2209623981,2206850742,2200846985,2151517120,2186138002,2186080923,2177131913,2150501988,1892,1,16,17897
1381620827,5811,55.9500007629394500,26.3593997955322270,35.3995018005371100,242.7165069580078000,-35.9491195678710940,26.3030109405517580,27.0653591156005860,69,128,90,85,56,15063,2274264658,2276153188,2270814381,2158587446,2228971346,2232873718,2215447542,2155202139,1853,1,16,14879
1381620882,5810,53.8499984741210940,26.5252990722656250,35.4079017639160160,241.7631988525390600,-40.1280097961425800,26.4344692230224600,27.0562095642089840,67,131,93,88,60,15062,2281769700,2283413513,2277607652,2159776886,2236492178,2240104530,2220758811,2155940525,2180,1,16,44961
1381620949,5807,52.1500015258789060,26.5797996520996100,35.4136009216308600,240.4418945312500000,-44.3559799194335940,26.5676002502441400,27.0626392364501950,69,129,91,86,55,15066,2291539529,2293421659,2287667117,2161716662,2242625782,2246191259,2225154944,2156742656,1509,1,16,55437
1381621034,5807,50.1500015258789060,26.8302001953125000,35.4146003723144500,238.1015014648437500,-51.5756797790527340,26.7952194213867200,27.0778408050537100,66,129,92,87,54,15064,2295267008,2295165805,2288661357,2163001773,2248592576,2250980077,2227962011,2157260233,1071,1,16,56642
1381621101,5808,48.2799987792968750,27.2176990509033200,35.4336013793945300,234.7476043701172000,-63.7011604309082000,27.1783599853515620,27.0797290802001950,64,136,95,89,56,15050,2306345737,2305909824,2299749778,2165420050,2257609718,2259352960,2233987556,2158178861,546,1,16,20453
1381621240,5808,46.7700004577636700,27.2675991058349600,35.4443016052246100,232.1703033447265600,-66.8936233520507800,27.2794208526611330,27.1571006774902340,61,140,92,86,57,15051,2310921563,2310561645,2304601398,2167400795,2261827282,2263302418,2236901348,2158944960,751,1,16,28450
1381621372,5807,43.8800010681152340,27.4246006011962900,35.4412002563476560,230.6349029541015600,-71.4590072631836000,27.4240703582763670,27.1714096069335940,60,135,94,87,54,15015,2307793581,2305452516,2298537600,2168847524,2268088182,2266508726,2237475273,2159412562,3486,1,16,37623
1381621427,5807,42.2200012207031250,27.4713001251220700,35.4375000000000000,229.7532958984375000,-73.0636596679687500,27.4749603271484380,27.1921100616455080,59,132,92,87,56,15044,2295200978,2290976557,2281646957,2167154578,2262460242,2256953636,2227223049,2157900900,2907,1,17,25580
1381621506,5807,40.1399993896484400,27.5137004852294920,35.4249992370605500,228.9398956298828000,-74.4890136718750000,27.5201702117919920,27.2121391296386720,58,130,93,87,55,15052,2283427044,2277628608,2266347611,2165671552,2272140653,2264915474,2231986038,2158527670,2402,1,16,65123
1381621585,5814,38.4599990844726560,27.6452999114990230,35.3720016479492200,227.2893981933593800,-78.2716598510742200,27.6402301788330080,27.2422103881835940,58,128,92,86,53,15042,2337710692,2337149796,2328652864,2178929746,2315687149,2307244242,2262643273,2163808941,1570,0,17,44794
1381621705,5804,36.3800010681152340,27.7250003814697270,35.3194999694824200,226.0686950683593800,-81.0135879516601600,27.7273406982421880,27.2653694152832030,58,125,91,85,54,15046,2347644406,2346015094,2336350829,2183340260,2340458267,2327770834,2275010633,2165834724,1467,0,16,56908